Tracking 28052 objects as of 22-Sep-2023
HD Live streaming from Space Station
objects crossing your sky now

CHUANG XIN 16A (CX-16A)

Track CHUANG XIN 16A (CX-16A) now!
10-day predictions


NORAD ID: 53586
Int'l Code: 2022-102A
Perigee: 580.2 km
Apogee: 588.8 km
Inclination: 29.0 °
Period: 96.2 minutes
Semi major axis: 6955 km
RCS: Unknown
Launch date: August 23, 2022
Source: People's Republic of China (PRC)
Launch site: Xichang Space Center, China (XSC)
Your satellite tracking list
Your tracking list is empty




NASA's NSSDC Master Catalog

Two Line Element Set (TLE):
1 53586U 22102A   23264.94566638  .00002644  00000-0  21442-3 0  9990
2 53586  28.9991 351.6081 0006197 333.7258  26.3024 14.96612554 59100
Source of the keplerian elements: AFSPC